Amarillo, TX

12:17 PM CDT on June 28, 2017 (GMT -0500)
Amarillo International

Weather History for KAMA - March, 2013

Change the Weather History Date:

Thursday, March 28, 2013

  Actual Average Record
Temperature  
Mean Temperature 57 °F 51 °F  
Max Temperature 76 °F 66 °F 90 °F (1963)
Min Temperature 38 °F 36 °F 7 °F (1899)
Degree Days  
Heating Degree Days 8 14  
Month to date heating degree days 427 492  
Since 1 July heating degree days 3292 3769  
Cooling Degree Days 0 0  
Month to date cooling degree days 0 0  
Year to date cooling degree days 0 0  
Growing Degree Days 7 (Base 50)    
Moisture  
Dew Point 30 °F    
Average Humidity 39    
Maximum Humidity 59    
Minimum Humidity 18    
Precipitation  
Precipitation 0.00 in 0.05 in 0.98 in (2017)
Month to date precipitation 0.15 1.24  
Year to date precipitation 3.44 2.52  
Snow  
Snow 0.00 in 0.10 in 5.00 in (1970)
Month to date snowfall 0.1 2.7  
Since 1 July snowfall 29.7 16.7  
Snow Depth 0.00 in    
Sea Level Pressure  
Sea Level Pressure 29.99 in    
Wind  
Wind Speed 8 mph (North)    
Max Wind Speed 17 mph    
Max Gust Speed 20 mph    
Visibility 10 miles    
Events      
T = Trace of Precipitation, MM = Missing Value Source: NWS Daily Summary

Daily Weather History Graph

Daily Weather History Graph

Search for Another Location

Airport or City:

Trip Planner

Search our weather history database for the weather conditions in past years. The results will help you decide how hot, cold, wet, or windy it might be!

Date:

Astronomy

Mar. 28, 2013 Rise Set
Actual Time 7:38 AM CDT 8:05 PM CDT
Civil Twilight 7:13 AM CDT 8:30 PM CDT
Nautical Twilight 6:43 AM CDT 9:00 PM CDT
Astronomical Twilight 6:13 AM CDT 9:31 PM CDT
Moon 9:53 PM CDT 8:12 AM CDT
Length of Visible Light 13h 17m
Length of Day
12h 26m
Full, 98% of the Moon is Illuminated
Mar 28
Full
Apr 2
Last Quarter
Apr 10
New
Apr 18
First Quarter
Apr 25
Full

Hourly Weather History & Observations

Time (CDT) Temp. Windchill Dew Point Humidity Pressure Visibility Wind Dir Wind Speed Gust Speed Precip Events Conditions
12:53 AM 50.0 °F - 27.0 °F 41% 29.96 in 10.0 mi ENE 15.0 mph - N/A   Clear
1:53 AM 45.0 °F 40.1 °F 26.1 °F 48% 29.97 in 10.0 mi NE 9.2 mph - N/A   Clear
2:53 AM 46.9 °F - 27.0 °F 46% 29.94 in 10.0 mi East 9.2 mph - N/A   Clear
3:53 AM 43.0 °F 39.5 °F 27.0 °F 53% 29.95 in 10.0 mi North 5.8 mph - N/A   Clear
4:53 AM 42.1 °F 37.7 °F 27.0 °F 55% 29.95 in 10.0 mi NNW 6.9 mph - N/A   Clear
5:53 AM 39.9 °F 33.4 °F 26.1 °F 58% 29.97 in 10.0 mi NNW 10.4 mph - N/A   Clear
6:53 AM 39.0 °F 34.0 °F 27.0 °F 62% 29.99 in 10.0 mi NW 6.9 mph - N/A   Clear
7:53 AM 39.0 °F 32.3 °F 27.0 °F 62% 30.03 in 10.0 mi WNW 10.4 mph - N/A   Clear
8:53 AM 42.1 °F 35.7 °F 28.0 °F 58% 30.04 in 10.0 mi NNW 11.5 mph 19.6 mph N/A   Clear
9:53 AM 45.0 °F 38.9 °F 28.9 °F 53% 30.06 in 10.0 mi NW 12.7 mph - N/A   Clear
10:53 AM 50.0 °F - 30.0 °F 46% 30.06 in 10.0 mi NNW 11.5 mph - N/A   Clear
11:53 AM 55.9 °F - 32.0 °F 40% 30.06 in 10.0 mi NW 11.5 mph - N/A   Clear
12:53 PM 61.0 °F - 33.1 °F 35% 30.04 in 10.0 mi NNW 6.9 mph - N/A   Clear
1:53 PM 66.0 °F - 35.1 °F 32% 30.01 in 10.0 mi NNW 9.2 mph - N/A   Clear
2:53 PM 69.1 °F - 34.0 °F 27% 29.98 in 10.0 mi NNW 3.5 mph - N/A   Clear
3:53 PM 73.0 °F - 32.0 °F 22% 29.96 in 10.0 mi Variable 4.6 mph - N/A   Clear
4:53 PM 73.0 °F - 30.0 °F 20% 29.95 in 10.0 mi Calm Calm - N/A   Clear
5:53 PM 75.0 °F - 28.0 °F 18% 29.94 in 10.0 mi Variable 3.5 mph - N/A   Clear
6:01 PM 75.2 °F - 28.4 °F 18% 30.02 in 10.0 mi West 5.8 mph - N/A   Partly Cloudy
6:09 PM 75.2 °F - 28.4 °F 18% 30.02 in 10.0 mi NW 3.5 mph - N/A   Clear
6:53 PM 73.9 °F - 28.0 °F 18% 29.95 in 10.0 mi Calm Calm - N/A   Clear
7:53 PM 64.9 °F - 30.0 °F 27% 29.97 in 10.0 mi East 5.8 mph - N/A   Clear
8:53 PM 62.1 °F - 30.0 °F 30% 29.98 in 10.0 mi ENE 9.2 mph - N/A   Clear
9:53 PM 60.1 °F - 34.0 °F 38% 29.99 in 10.0 mi East 13.8 mph - N/A   Clear
10:53 PM 59.0 °F - 33.1 °F 38% 30.00 in 10.0 mi ESE 11.5 mph - N/A   Clear
11:53 PM 57.0 °F - 33.1 °F 40% 29.99 in 10.0 mi East 9.2 mph - N/A   Clear